Historique des stations

Station météo de Le Grand-Pressigny

Altitude de la station : 93 m







Données météorologiques pour le 18/08/2022
Date
Heure
Températures Humidité Point de rosée Vitesse
du vent
Direction Rafales Windchill Pression Pluviométrie
Cumul
Date
Heure
Températures Humidité Point de rosée Vitesse
du vent
Direction Rafales Windchill Pression Pluviométrie
Cumul
18/08/2022 17:2026.1 °C55 %16.3 °C3 km/hO8 km/h01017 hPa0.0 mm
18/08/2022 17:0025.8 °C56 %16.4 °C2 km/hNNE11 km/h01017 hPa0.0 mm
18/08/2022 16:5024.8 °C58 %15.9 °C3 km/hO10 km/h01017 hPa0.0 mm
18/08/2022 16:3025.2 °C57 %16 °C2 km/hONO10 km/h01017 hPa0.0 mm
18/08/2022 16:2026.1 °C55 %16.3 °C3 km/hNNE8 km/h01017 hPa0.0 mm
18/08/2022 16:0025.2 °C59 %16.6 °C2 km/hSSE15 km/h01017 hPa0.0 mm
18/08/2022 15:5024.8 °C62 %17 °C3 km/hNE8 km/h01017 hPa0.0 mm
18/08/2022 15:3023.6 °C64 %16.4 °C2 km/hO13 km/h01017 hPa0.0 mm
18/08/2022 15:0022.9 °C70 %17.1 °C3 km/hONO11 km/h01017 hPa0.0 mm
18/08/2022 14:5022.3 °C72 %17 °C5 km/hO16 km/h01017 hPa0.0 mm
18/08/2022 14:3022.1 °C74 %17.2 °C2 km/hOSO18 km/h01017 hPa0.0 mm
18/08/2022 14:2021.9 °C74 %17 °C6 km/hO15 km/h01017 hPa0.0 mm
18/08/2022 14:0021.4 °C74 %16.6 °C5 km/hNO11 km/h01017 hPa0.0 mm
18/08/2022 13:5021.3 °C77 %17.1 °C2 km/h11 km/h01017 hPa0.0 mm
18/08/2022 13:3020.4 °C80 %16.8 °C5 km/hO13 km/h01017 hPa0.0 mm
18/08/2022 13:2020 °C80 %16.4 °C6 km/hO15 km/h01017 hPa0.0 mm
18/08/2022 13:0019.9 °C81 %16.5 °C6 km/hO15 km/h01017 hPa0.0 mm
18/08/2022 12:5020.2 °C80 %16.7 °C6 km/hO10 km/h01017 hPa0.0 mm
18/08/2022 12:3019.4 °C83 %16.5 °C5 km/hNE10 km/h01017 hPa0.0 mm
18/08/2022 12:2019.1 °C84 %16.3 °C2 km/hE10 km/h01017 hPa0.0 mm
18/08/2022 12:1018.9 °C84 %16.2 °C2 km/hNE8 km/h01017 hPa0.0 mm
18/08/2022 11:5018.6 °C86 %16.2 °C3 km/hNNE6 km/h01017 hPa0.0 mm
18/08/2022 11:3017.9 °C87 %15.7 °C2 km/hNE3 km/h01017 hPa0.0 mm
18/08/2022 11:2017.3 °C89 %15.4 °C-5 km/h01017 hPa0.0 mm
18/08/2022 11:0016.7 °C90 %15.1 °C---01016 hPa0.0 mm
18/08/2022 10:2013.7 °C95 %12.9 °C---01016 hPa0.0 mm
18/08/2022 10:0012.6 °C96 %11.9 °C---01016 hPa0.0 mm
18/08/2022 09:5012 °C96 %11.4 °C---01016 hPa0.0 mm
18/08/2022 09:2011 °C95 %10.2 °C---01016 hPa0.0 mm
18/08/2022 07:1011.8 °C95 %11.1 °C---01015 hPa0.0 mm
18/08/2022 06:5012 °C94 %11.1 °C---01015 hPa0.0 mm
18/08/2022 06:1012.4 °C94 %11.4 °C---01015 hPa0.0 mm
18/08/2022 05:0013 °C93 %11.9 °C---01016 hPa0.0 mm
18/08/2022 04:1013.7 °C91 %12.2 °C---01015 hPa0.0 mm
18/08/2022 04:0013.8 °C91 %12.3 °C---01015 hPa0.0 mm
18/08/2022 03:4014.1 °C90 %12.5 °C---01015 hPa0.0 mm
18/08/2022 02:0015.7 °C85 %13.2 °C---01015 hPa0.0 mm
18/08/2022 01:5015.9 °C84 %13.2 °C---01015 hPa0.0 mm
18/08/2022 01:3016.5 °C82 %13.4 °C---01015 hPa0.0 mm
18/08/2022 01:1017.3 °C79 %13.7 °C---01014 hPa0.0 mm
18/08/2022 01:0017.9 °C77 %13.8 °C---01014 hPa0.0 mm


Minima :

Température : 11 °C
Humidité : 55 %
Point de rosée : 10.2 °C
Vent moyen : 2 km/h
Windchill : 0
Pression atm. : 1014 hPa
Maxima :

Température : 26.1 °C
Humidité : 96 %
Point de rosée : 17.2 °C
Vent moyen : 6 km/h
Windchill : 0
Pression atm. : 1017 hPa
Rafales max : 18 km/h
Cumul de pluie sur 24H : 0 mm

Le Grand-Pressigny est une commune du département Indre-et-Loire (37).
La station météorologique du réseau de l'association la plus proche de Le Grand-Pressigny est celle de Les Ormes



Icône Facebook Association Météo Centre Icône Twitter Association Météo Centre Icône Chaîne Youtube Association Météo Centre Icône contact Association Météo Centre Icône Insta Association Météo Centre